| time (UTC) | temp F | wind direction | speed MPH | gust MPH | rain 1hr in | rain 24hr in | rain mn in | humidity % | barometer mb |
| 20260506001505 | 81 | 202 | 7.0 | 9.0 | 0.00 | 0.00 | 0.00 | 73 | 1003.9 |
| 20260506000004 | 82 | 213 | 4.0 | 8.0 | 0.00 | 0.00 | 0.00 | 71 | 1004.0 |
| 20260505234504 | 83 | 246 | 5.0 | 11.0 | 0.00 | 0.00 | 0.00 | 70 | 1004.2 |
| 20260505233003 | 83 | 193 | 6.0 | 13.0 | 0.00 | 0.00 | 0.00 | 71 | 1004.0 |
| 20260505231502 | 82 | 244 | 7.0 | 13.0 | 0.00 | 0.00 | 0.00 | 71 | 1004.0 |
| 20260505230005 | 83 | 206 | 7.0 | 12.0 | 0.00 | 0.00 | 0.00 | 71 | 1004.0 |
| 20260505224501 | 83 | 222 | 11.0 | 17.0 | 0.00 | 0.00 | 0.00 | 71 | 1003.8 |
| 20260505223105 | 83 | 198 | 13.0 | 19.0 | 0.00 | 0.00 | 0.00 | 71 | 1003.8 |
| 20260505221602 | 83 | 190 | 8.0 | 20.0 | 0.00 | 0.00 | 0.00 | 70 | 1003.8 |
| 20260505220108 | 83 | 238 | 12.0 | 20.0 | 0.00 | 0.00 | 0.00 | 69 | 1003.7 |
| 20260505214612 | 84 | 198 | 14.0 | 23.0 | 0.00 | 0.00 | 0.00 | 70 | 1003.5 |
| 20260505213056 | 84 | 230 | 11.0 | 22.0 | 0.00 | 0.00 | 0.00 | 69 | 1003.8 |
| 20260505211631 | 84 | 243 | 11.0 | 22.0 | 0.00 | 0.00 | 0.00 | 70 | 1003.8 |
| 20260505210054 | 84 | 251 | 11.0 | 22.0 | 0.00 | 0.00 | 0.00 | 69 | 1003.9 |
| 20260505204602 | 84 | 227 | 12.0 | 28.0 | 0.00 | 0.00 | 0.00 | 69 | 1004.1 |
| 20260505203049 | 84 | 192 | 13.0 | 22.0 | 0.00 | 0.00 | 0.00 | 71 | 1004.1 |
| 20260505201546 | 83 | 207 | 11.0 | 23.0 | 0.00 | 0.00 | 0.00 | 71 | 1004.3 |
| 20260505200044 | 83 | 200 | 16.0 | 27.0 | 0.00 | 0.00 | 0.00 | 72 | 1004.3 |
| 20260505194542 | 82 | 228 | 17.0 | 29.0 | 0.00 | 0.00 | 0.00 | 72 | 1004.4 |
| 20260505193041 | 81 | 198 | 17.0 | 22.0 | 0.00 | 0.00 | 0.00 | 73 | 1004.6 |
| 20260505191540 | 81 | 187 | 14.0 | 24.0 | 0.00 | 0.00 | 0.00 | 74 | 1004.7 |
| 20260505190039 | 81 | 219 | 15.0 | 27.0 | 0.00 | 0.00 | 0.00 | 73 | 1004.7 |
| 20260505184542 | 82 | 227 | 16.0 | 24.0 | 0.00 | 0.00 | 0.00 | 72 | 1004.6 |
| 20260505183036 | 82 | 245 | 13.0 | 27.0 | 0.00 | 0.00 | 0.00 | 73 | 1004.8 |
| 20260505181539 | 81 | 232 | 15.0 | 23.0 | 0.00 | 0.00 | 0.00 | 74 | 1005.1 |
| 20260505180028 | 79 | 265 | 18.0 | 30.0 | 0.00 | 0.00 | 0.00 | 75 | 1005.3 |
| 20260505174535 | 79 | 215 | 11.0 | 25.0 | 0.00 | 0.00 | 0.00 | 77 | 1005.5 |
| 20260505173023 | 78 | 214 | 11.0 | 23.0 | 0.00 | 0.00 | 0.00 | 78 | 1005.4 |
| 20260505171530 | 78 | 233 | 16.0 | 23.0 | 0.00 | 0.00 | 0.00 | 77 | 1005.6 |
| 20260505170019 | 77 | 197 | 16.0 | 30.0 | 0.00 | 0.00 | 0.00 | 78 | 1005.3 |
| 20260505164517 | 77 | 217 | 15.0 | 30.0 | 0.00 | 0.00 | 0.00 | 79 | 1005.3 |
| 20260505163014 | 76 | 244 | 12.0 | 36.0 | 0.00 | 0.00 | 0.00 | 80 | 1005.2 |
| 20260505161512 | 75 | 221 | 16.0 | 29.0 | 0.00 | 0.00 | 0.00 | 81 | 1005.2 |
| 20260505153012 | 74 | 223 | 19.0 | 27.0 | 0.00 | 0.00 | 0.00 | 82 | 1005.5 |
| 20260505151505 | 74 | 202 | 13.0 | 23.0 | 0.00 | 0.00 | 0.00 | 83 | 1005.3 |
| 20260505124543 | 69 | 193 | 14.0 | 19.0 | 0.00 | 0.00 | 0.00 | 87 | 1004.9 |
| 20260505123051 | 69 | 204 | 15.0 | 23.0 | 0.00 | 0.00 | 0.00 | 87 | 1004.9 |
| 20260505121541 | 69 | 212 | 16.0 | 22.0 | 0.00 | 0.00 | 0.00 | 87 | 1004.7 |
| 20260505114539 | 69 | 205 | 11.0 | 18.0 | 0.00 | 0.00 | 0.00 | 87 | 1004.7 |
| 20260505113038 | 69 | 217 | 14.0 | 22.0 | 0.00 | 0.00 | 0.00 | 86 | 1004.8 |
| 20260505111538 | 69 | 221 | 12.0 | 22.0 | 0.00 | 0.00 | 0.00 | 86 | 1004.8 |
| 20260505101533 | 69 | 220 | 10.0 | 21.0 | 0.00 | 0.00 | 0.00 | 84 | 1004.7 |
| 20260505100035 | 69 | 206 | 13.0 | 20.0 | 0.00 | 0.00 | 0.00 | 84 | 1004.9 |
| 20260505094533 | 69 | 198 | 14.0 | 22.0 | 0.00 | 0.00 | 0.00 | 84 | 1004.8 |
| 20260505093032 | 69 | 202 | 13.0 | 24.0 | 0.00 | 0.00 | 0.00 | 84 | 1004.7 |
| 20260505091530 | 69 | 202 | 14.0 | 26.0 | 0.00 | 0.00 | 0.00 | 84 | 1004.8 |
| 20260505090029 | 69 | 188 | 14.0 | 21.0 | 0.00 | 0.00 | 0.00 | 84 | 1004.7 |
| 20260505084531 | 69 | 188 | 15.0 | 22.0 | 0.00 | 0.00 | 0.00 | 84 | 1004.8 |
| 20260505083026 | 69 | 201 | 15.0 | 22.0 | 0.00 | 0.00 | 0.00 | 84 | 1005.1 |
| 20260505081524 | 68 | 221 | 15.0 | 23.0 | 0.00 | 0.00 | 0.00 | 84 | 1005.2 |
| 20260505080021 | 68 | 207 | 16.0 | 25.0 | 0.00 | 0.00 | 0.00 | 83 | 1005.3 |
| 20260505074519 | 69 | 201 | 14.0 | 23.0 | 0.00 | 0.00 | 0.00 | 83 | 1005.4 |
| 20260505073016 | 69 | 221 | 14.0 | 23.0 | 0.00 | 0.00 | 0.00 | 82 | 1005.5 |
| 20260505071513 | 69 | 202 | 20.0 | 26.0 | 0.00 | 0.00 | 0.00 | 81 | 1005.5 |
| 20260505070009 | 69 | 205 | 16.0 | 25.0 | 0.00 | 0.00 | 0.00 | 81 | 1005.9 |
| 20260505064509 | 70 | 199 | 16.0 | 25.0 | 0.00 | 0.00 | 0.00 | 80 | 1006.1 |
| 20260505063007 | 70 | 195 | 15.0 | 23.0 | 0.00 | 0.00 | 0.00 | 80 | 1006.1 |
| 20260505061502 | 70 | 212 | 15.0 | 22.0 | 0.00 | 0.00 | 0.00 | 79 | 1006.2 |
| 20260505060104 | 70 | 194 | 14.0 | 20.0 | 0.00 | 0.00 | 0.00 | 79 | 1006.2 |
| 20260505054602 | 70 | 198 | 13.0 | 22.0 | 0.00 | 0.00 | 0.00 | 78 | 1006.4 |
| 20260505053055 | 70 | 188 | 12.0 | 18.0 | 0.00 | 0.00 | 0.00 | 77 | 1006.4 |
| 20260505051552 | 70 | 183 | 10.0 | 18.0 | 0.00 | 0.00 | 0.00 | 76 | 1006.5 |
| 20260505041553 | 71 | 196 | 11.0 | 19.0 | 0.00 | 0.00 | 0.00 | 74 | 1006.7 |
| 20260505040056 | 71 | 195 | 11.0 | 15.0 | 0.00 | 0.00 | 0.00 | 73 | 1006.9 |
| 20260505034605 | 71 | 195 | 9.0 | 15.0 | 0.00 | 0.00 | 0.00 | 72 | 1006.9 |
| 20260505033046 | 71 | 184 | 9.0 | 14.0 | 0.00 | 0.00 | 0.00 | 71 | 1007.0 |
| 20260505031546 | 72 | 210 | 9.0 | 15.0 | 0.00 | 0.00 | 0.00 | 70 | 1007.0 |
| 20260505030049 | 72 | 188 | 11.0 | 21.0 | 0.00 | 0.00 | 0.00 | 69 | 1007.0 |
| 20260505024547 | 72 | 202 | 10.0 | 19.0 | 0.00 | 0.00 | 0.00 | 69 | 1006.7 |
| 20260505023046 | 72 | 190 | 11.0 | 17.0 | 0.00 | 0.00 | 0.00 | 68 | 1006.7 |
| 20260505021544 | 72 | 196 | 11.0 | 16.0 | 0.00 | 0.00 | 0.00 | 68 | 1006.8 |
| 20260505020054 | 73 | 190 | 11.0 | 16.0 | 0.00 | 0.00 | 0.00 | 67 | 1006.8 |
| 20260505014543 | 73 | 211 | 10.0 | 15.0 | 0.00 | 0.00 | 0.00 | 66 | 1006.7 |
| 20260505013042 | 73 | 202 | 11.0 | 15.0 | 0.00 | 0.00 | 0.00 | 65 | 1006.6 |
| 20260505011540 | 74 | 198 | 12.0 | 17.0 | 0.00 | 0.00 | 0.00 | 64 | 1006.7 |
| 20260505010052 | 74 | 190 | 11.0 | 22.0 | 0.00 | 0.00 | 0.00 | 63 | 1006.6 |
| 20260505004557 | 75 | 188 | 11.0 | 17.0 | 0.00 | 0.00 | 0.00 | 61 | 1006.6 |
| 20260505003038 | 76 | 188 | 11.0 | 18.0 | 0.00 | 0.00 | 0.00 | 60 | 1006.4 |